When you browse on this site, cookies collect data to enhance your experience and personalize the content and advertising you see.
Visit our Privacy Policy to learn more. By continuing to use the site, you agree to this use of cookies and data.
  • In United Kingdom
  • List of Countries
  • For 7 days
  • Water Temperature
  • Weather Map
  • Weather Widgets
  • user-avatar
    Login

    Hourly Weather Offenbach am Main

    Today, 25 August, Sunday

    Time Temperature Precipitation Wind Pressure Humidity
    00:00 +23°C° 0 mm 1 mps 754 mmHg 80%
    01:00 +22°C° 0 mm 1 mps 754 mmHg 82%
    02:00 +22°C° 0 mm 1 mps 754 mmHg 83%
    03:00 +21°C° 0 mm 1 mps 754 mmHg 84%
    04:00 +21°C° 0 mm 1 mps 754 mmHg 86%
    05:00 +21°C° 0 mm 1 mps 754 mmHg 84%
    06:00 +20°C° 0 mm 0 mps 754 mmHg 83%
    07:00 +20°C° 0 mm 0 mps 754 mmHg 81%
    08:00 +22°C° 0 mm 0 mps 754 mmHg 74%
    09:00 +24°C° 0 mm 0 mps 754 mmHg 66%
    10:00 +27°C° 0 mm 0 mps 754 mmHg 59%
    11:00 +28°C° 0 mm 0 mps 754 mmHg 55%
    12:00 +29°C° 0 mm 0 mps 754 mmHg 50%
    13:00 +31°C° 0 mm 0 mps 754 mmHg 46%
    14:00 +30°C° 0.1 mm 0 mps 753 mmHg 44%
    15:00 +32°C° 0.1 mm 1 mps 753 mmHg 43%
    16:00 +32°C° 0.1 mm 1 mps 753 mmHg 42%
    17:00 +31°C° 0.1 mm 1 mps 753 mmHg 47%
    18:00 +30°C° 0.1 mm 1 mps 753 mmHg 52%
    19:00 +28°C° 0.1 mm 1 mps 753 mmHg 57%
    20:00 +27°C° 0.1 mm 1 mps 753 mmHg 60%
    21:00 +26°C° 0.1 mm 1 mps 754 mmHg 64%
    22:00 +25°C° 0.1 mm 1 mps 754 mmHg 68%
    23:00 +22°C° 0 mm 0 mps 754 mmHg 70%

    Tomorrow, 26 August, Monday

    Time Temperature Precipitation Wind Pressure Humidity
    00:00 +22°C° 0 mm 0 mps 754 mmHg 72%
    01:00 +21°C° 0 mm 0 mps 753 mmHg 74%
    02:00 +21°C° 0 mm 0 mps 753 mmHg 76%
    03:00 +21°C° 0 mm 0 mps 753 mmHg 77%
    04:00 +20°C° 0 mm 0 mps 753 mmHg 78%
    05:00 +21°C° 0 mm 0 mps 753 mmHg 77%
    06:00 +21°C° 0 mm 0 mps 753 mmHg 76%
    07:00 +22°C° 0 mm 0 mps 753 mmHg 75%
    08:00 +24°C° 0 mm 0 mps 753 mmHg 68%
    09:00 +26°C° 0 mm 0 mps 753 mmHg 61%
    10:00 +28°C° 0 mm 0 mps 754 mmHg 55%
    11:00 +29°C° 0 mm 0 mps 753 mmHg 50%
    12:00 +30°C° 0 mm 0 mps 753 mmHg 46%
    13:00 +32°C° 0 mm 0 mps 753 mmHg 42%
    14:00 +33°C° 0.1 mm 1 mps 753 mmHg 42%
    15:00 +33°C° 0.1 mm 1 mps 752 mmHg 42%
    16:00 +33°C° 0.1 mm 1 mps 752 mmHg 42%
    17:00 +32°C° 0 mm 1 mps 752 mmHg 47%
    18:00 +30°C° 0 mm 1 mps 752 mmHg 52%
    19:00 +29°C° 0 mm 1 mps 752 mmHg 57%
    20:00 +28°C° 0.2 mm 1 mps 752 mmHg 60%
    21:00 +27°C° 0.2 mm 1 mps 752 mmHg 63%
    22:00 +24°C° 0.2 mm 0 mps 752 mmHg 66%
    23:00 +25°C° 0.1 mm 1 mps 752 mmHg 68%

    Day after tomorrow, 27 August, Tuesday

    Time Temperature Precipitation Wind Pressure Humidity
    00:00 +25°C° 0.1 mm 1 mps 752 mmHg 70%
    01:00 +24°C° 0.1 mm 1 mps 752 mmHg 73%
    02:00 +22°C° 0 mm 0 mps 752 mmHg 74%
    03:00 +21°C° 0 mm 0 mps 752 mmHg 76%
    04:00 +21°C° 0 mm 0 mps 752 mmHg 77%
    05:00 +21°C° 0 mm 0 mps 752 mmHg 76%
    06:00 +22°C° 0 mm 0 mps 752 mmHg 75%
    07:00 +22°C° 0 mm 0 mps 752 mmHg 73%
    08:00 +24°C° 0 mm 0 mps 752 mmHg 66%
    09:00 +26°C° 0 mm 0 mps 753 mmHg 59%
    10:00 +28°C° 0 mm 0 mps 753 mmHg 52%
    11:00 +30°C° 0 mm 0 mps 752 mmHg 48%
    12:00 +33°C° 0 mm 1 mps 752 mmHg 44%
    13:00 +34°C° 0 mm 1 mps 752 mmHg 39%
    14:00 +34°C° 0 mm 1 mps 752 mmHg 39%
    15:00 +34°C° 0 mm 1 mps 752 mmHg 39%
    16:00 +34°C° 0 mm 1 mps 751 mmHg 39%
    17:00 +32°C° 0 mm 1 mps 751 mmHg 44%
    18:00 +31°C° 0 mm 1 mps 751 mmHg 50%
    19:00 +29°C° 0 mm 2 mps 751 mmHg 55%
    20:00 +28°C° 0 mm 1 mps 751 mmHg 57%
    21:00 +27°C° 0 mm 1 mps 752 mmHg 59%
    22:00 +26°C° 0 mm 1 mps 752 mmHg 61%
    23:00 +26°C° 0 mm 1 mps 752 mmHg 63%

    28 August, Wednesday

    Time Temperature Precipitation Wind Pressure Humidity
    00:00 +23°C° 0 mm 0 mps 751 mmHg 65%
    01:00 +23°C° 0 mm 0 mps 751 mmHg 66%
    02:00 +22°C° 0 mm 0 mps 751 mmHg 67%
    03:00 +22°C° 0 mm 0 mps 751 mmHg 68%
    04:00 +22°C° 0 mm 0 mps 751 mmHg 70%
    05:00 +22°C° 0 mm 0 mps 751 mmHg 69%
    06:00 +22°C° 0 mm 0 mps 751 mmHg 68%
    07:00 +23°C° 0 mm 0 mps 751 mmHg 67%
    08:00 +26°C° 0 mm 1 mps 751 mmHg 60%
    09:00 +28°C° 0 mm 1 mps 751 mmHg 54%
    10:00 +30°C° 0 mm 1 mps 751 mmHg 47%
    11:00 +31°C° 0 mm 1 mps 750 mmHg 43%
    12:00 +33°C° 0 mm 1 mps 750 mmHg 39%
    13:00 +34°C° 0 mm 1 mps 750 mmHg 35%
    14:00 +34°C° 0 mm 1 mps 750 mmHg 34%
    15:00 +33°C° 0 mm 1 mps 749 mmHg 34%
    16:00 +33°C° 0 mm 1 mps 749 mmHg 34%
    17:00 +32°C° 0 mm 1 mps 749 mmHg 39%
    18:00 +30°C° 0 mm 1 mps 749 mmHg 43%
    19:00 +29°C° 0 mm 1 mps 749 mmHg 48%
    20:00 +28°C° 0 mm 1 mps 749 mmHg 51%
    21:00 +27°C° 0 mm 1 mps 749 mmHg 54%
    22:00 +26°C° 0 mm 1 mps 749 mmHg 56%
    23:00 +26°C° 0 mm 1 mps 749 mmHg 58%

    29 August, Thursday

    Time Temperature Precipitation Wind Pressure Humidity
    00:00 +25°C° 0 mm 1 mps 749 mmHg 59%
    01:00 +25°C° 0 mm 1 mps 749 mmHg 61%
    02:00 +24°C° 0.1 mm 1 mps 749 mmHg 64%
    03:00 +22°C° 0.1 mm 0 mps 749 mmHg 67%
    04:00 +21°C° 0.1 mm 0 mps 749 mmHg 70%
    05:00 +24°C° 0.2 mm 1 mps 749 mmHg 70%
    06:00 +24°C° 0.2 mm 1 mps 750 mmHg 71%
    07:00 +24°C° 0.2 mm 1 mps 750 mmHg 71%
    08:00 +25°C° 0.2 mm 2 mps 750 mmHg 67%
    09:00 +26°C° 0.2 mm 2 mps 751 mmHg 63%
    10:00 +27°C° 0.2 mm 3 mps 751 mmHg 59%
    11:00 +28°C° 0.1 mm 3 mps 751 mmHg 58%
    12:00 +28°C° 0.1 mm 4 mps 751 mmHg 58%
    13:00 +28°C° 0.1 mm 4 mps 751 mmHg 57%
    14:00 +27°C° 0.1 mm 3 mps 752 mmHg 60%
    15:00 +26°C° 0.1 mm 2 mps 752 mmHg 62%
    16:00 +26°C° 0.1 mm 1 mps 752 mmHg 65%
    17:00 +25°C° 0 mm 1 mps 752 mmHg 66%
    18:00 +25°C° 0 mm 1 mps 752 mmHg 67%
    19:00 +22°C° 0 mm 0 mps 752 mmHg 69%
    20:00 +24°C° 0 mm 1 mps 753 mmHg 71%
    21:00 +23°C° 0 mm 1 mps 753 mmHg 74%
    22:00 +22°C° 0 mm 1 mps 754 mmHg 77%
    23:00 +22°C° 0 mm 1 mps 754 mmHg 79%

    30 August, Friday

    Time Temperature Precipitation Wind Pressure Humidity
    00:00 +21°C° 0 mm 1 mps 754 mmHg 81%
    01:00 +21°C° 0 mm 1 mps 754 mmHg 83%
    02:00 +20°C° 0 mm 2 mps 754 mmHg 84%
    03:00 +20°C° 0 mm 2 mps 754 mmHg 85%
    04:00 +20°C° 0 mm 2 mps 755 mmHg 86%
    05:00 +20°C° 0 mm 2 mps 755 mmHg 85%
    06:00 +20°C° 0 mm 2 mps 755 mmHg 84%
    07:00 +20°C° 0 mm 2 mps 755 mmHg 83%
    08:00 +20°C° 0 mm 2 mps 755 mmHg 80%
    09:00 +20°C° 0 mm 2 mps 756 mmHg 78%
    10:00 +21°C° 0 mm 2 mps 756 mmHg 76%
    11:00 +23°C° 0 mm 2 mps 756 mmHg 71%
    12:00 +24°C° 0 mm 2 mps 755 mmHg 66%
    13:00 +25°C° 0 mm 2 mps 755 mmHg 61%
    14:00 +26°C° 0 mm 2 mps 755 mmHg 59%
    15:00 +27°C° 0 mm 2 mps 754 mmHg 56%
    16:00 +27°C° 0 mm 2 mps 754 mmHg 53%
    17:00 +26°C° 0 mm 2 mps 754 mmHg 58%
    18:00 +25°C° 0 mm 2 mps 754 mmHg 62%
    19:00 +24°C° 0 mm 2 mps 754 mmHg 66%
    20:00 +23°C° 0 mm 2 mps 754 mmHg 69%
    21:00 +23°C° 0 mm 1 mps 754 mmHg 71%
    22:00 +22°C° 0 mm 1 mps 755 mmHg 74%
    23:00 +22°C° 0 mm 1 mps 754 mmHg 75%
    Show more